Total_Precipitation_Accumulation
0.00 0.00 0.00 0.00 0.00 0.00 0.00 0.00 0.00 0.00 0.00 0.00 0.00 0.00 0.03 0.00 0.00 0.03 0.02 0.00 0.07 0.01 0.02 0.00 0.00 0.00 0.06 0.15 0.14 0.07 0.05 0.10 0.09 0.26 0.41 0.07 0.11 0.16 0.05 0.05 0.03 0.03 0.04 0.09 0.05 0.10 0.22 0.07 0.02 0.01 0.02 0.01 0.00 0.00 0.01 0.01 0.01 0.01 0.02 0.02 0.03 0.03 0.03 0.04 0.05 0.03 0.03 0.03 0.04 0.04 0.05 0.05 0.06 0.04 0.06 0.04 0.03 0.04 0.07 0.08 0.08 0.10 0.13 0.23 0.14 0.12 0.13 0.13 0.10 0.11 0.12 0.11 0.08 0.14 0.08 0.08 0.07
0.00 0.00 0.00 0.00 0.00 0.00 0.00 0.00 0.01 0.00 0.00 0.00 0.00 0.00 0.00 0.00 0.00 0.04 0.05 0.00 0.01 0.01 0.02 0.00 0.00 0.07 0.05 0.05 0.05 0.04 0.05 0.06 0.07 0.05 0.20 0.17 0.16 0.10 0.09 0.05 0.01 0.04 0.05 0.08 0.05 0.05 0.09 0.10 0.03 0.00 0.02 0.01 0.00 0.01 0.01 0.01 0.01 0.01 0.02 0.02 0.03 0.02 0.05 0.03 0.03 0.05 0.04 0.04 0.05 0.06 0.07 0.08 0.06 0.08 0.07 0.04 0.05 0.05 0.05 0.11 0.17 0.24 0.18 0.16 0.22 0.15 0.10 0.12 0.12 0.09 0.10 0.09 0.07 0.07 0.06 0.04 0.05
0.00 0.00 0.00 0.00 0.00 0.00 0.00 0.00 0.00 0.00 0.00 0.00 0.00 0.00 0.00 0.00 0.00 0.00 0.00 0.01 0.03 0.00 0.04 0.04 0.05 0.06 0.13 0.10 0.12 0.05 0.69 0.11 0.07 0.06 0.20 0.19 0.12 0.42 0.13 0.08 0.03 0.03 0.03 0.07 0.06 0.04 0.07 0.09 0.05 0.02 0.02 0.01 0.00 0.01 0.01 0.01 0.02 0.03 0.02 0.02 0.05 0.03 0.02 0.05 0.05 0.06 0.09 0.05 0.06 0.07 0.07 0.06 0.06 0.06 0.04 0.04 0.04 0.05 0.05 0.11 0.22 0.18 0.21 0.15 0.14 0.12 0.13 0.13 0.13 0.09 0.05 0.05 0.04 0.07 0.06 0.07 0.04
0.00 0.00 0.00 0.00 0.00 0.00 0.00 0.00 0.00 0.00 0.00 0.00 0.00 0.00 0.00 0.00 0.00 0.00 0.00 0.00 0.06 0.00 0.00 0.00 0.07 0.03 0.07 0.11 0.16 0.02 0.09 0.09 0.10 0.04 0.17 0.15 0.14 0.15 0.14 0.06 0.06 0.05 0.07 0.08 0.06 0.06 0.05 0.09 0.02 0.01 0.01 0.01 0.01 0.01 0.01 0.02 0.02 0.02 0.04 0.03 0.02 0.03 0.05 0.06 0.07 0.05 0.07 0.10 0.07 0.06 0.07 0.06 0.10 0.07 0.07 0.05 0.03 0.07 0.06 0.08 0.14 0.19 0.16 0.18 0.08 0.11 0.06 0.12 0.08 0.07 0.04 0.03 0.02 0.02 0.02 0.01 0.02
0.00 0.00 0.00 0.00 0.00 0.00 0.00 0.00 0.00 0.00 0.00 0.00 0.00 0.00 0.00 0.00 0.00 0.00 0.00 0.00 0.01 0.00 0.00 0.00 0.01 0.00 0.02 0.15 0.05 0.14 0.24 0.09 0.06 0.11 0.05 0.10 0.04 0.09 0.09 0.06 0.08 0.08 0.11 0.11 0.08 0.07 0.13 0.12 0.02 0.02 0.00 0.01 0.01 0.02 0.02 0.03 0.03 0.02 0.02 0.03 0.06 0.04 0.04 0.05 0.06 0.07 0.07 0.08 0.09 0.08 0.07 0.10 0.07 0.07 0.07 0.06 0.05 0.07 0.04 0.04 0.06 0.11 0.06 0.03 0.04 0.02 0.01 0.02 0.03 0.02 0.02 0.01 0.02 0.02 0.03 0.01 0.01
0.00 0.00 0.00 0.00 0.00 0.00 0.00 0.00 0.00 0.00 0.00 0.00 0.00 0.00 0.00 0.00 0.00 0.00 0.00 0.00 0.00 0.00 0.00 0.00 0.00 0.01 0.09 0.08 0.04 0.20 0.12 0.33 0.04 0.04 0.10 0.12 0.08 0.08 0.07 0.05 0.08 0.10 0.13 0.09 0.10 0.06 0.14 0.07 0.03 0.01 0.00 0.01 0.02 0.02 0.02 0.05 0.04 0.02 0.03 0.04 0.08 0.04 0.05 0.06 0.11 0.09 0.07 0.10 0.09 0.07 0.08 0.07 0.09 0.08 0.07 0.06 0.04 0.03 0.02 0.02 0.03 0.02 0.05 0.01 0.01 0.02 0.02 0.02 0.02 0.01 0.02 0.01 0.00 0.01 0.01 0.00 0.00
0.00 0.00 0.00 0.00 0.00 0.00 0.00 0.00 0.00 0.00 0.00 0.00 0.00 0.00 0.00 0.00 0.00 0.00 0.00 0.00 0.00 0.00 0.00 0.00 0.00 0.01 0.06 0.04 0.03 0.11 0.06 0.04 0.08 0.08 0.06 0.10 0.07 0.08 0.05 0.08 0.11 0.15 0.12 0.11 0.16 0.11 0.11 0.02 0.01 0.00 0.01 0.02 0.03 0.04 0.06 0.05 0.04 0.06 0.05 0.07 0.04 0.05 0.06 0.08 0.09 0.09 0.08 0.08 0.09 0.11 0.14 0.07 0.08 0.06 0.10 0.06 0.07 0.05 0.03 0.02 0.04 0.05 0.02 0.01 0.02 0.02 0.02 0.02 0.01 0.01 0.01 0.00 0.00 0.00 0.00 0.00 0.00
0.00 0.00 0.00 0.00 0.00 0.00 0.00 0.00 0.00 0.00 0.00 0.00 0.00 0.00 0.00 0.00 0.00 0.00 0.00 0.00 0.04 0.00 0.00 0.00 0.02 0.04 0.54 0.02 0.38 0.11 0.05 0.04 0.08 0.08 0.08 0.09 0.09 0.10 0.07 0.11 0.10 0.22 0.23 0.32 0.46 0.13 0.32 0.02 0.01 0.00 0.01 0.01 0.05 0.06 0.05 0.05 0.07 0.05 0.06 0.04 0.05 0.08 0.06 0.10 0.08 0.06 0.06 0.05 0.07 0.08 0.07 0.05 0.05 0.03 0.11 0.11 0.06 0.03 0.03 0.05 0.05 0.06 0.07 0.01 0.01 0.02 0.02 0.01 0.01 0.00 0.00 0.00 0.00 0.00 0.00 0.00 0.00
0.00 0.00 0.00 0.00 0.00 0.00 0.00 0.00 0.00 0.00 0.00 0.00 0.00 0.00 0.00 0.00 0.00 0.00 0.00 0.00 0.02 0.00 0.02 0.01 0.02 0.02 0.39 0.17 0.23 0.15 0.10 0.12 0.07 0.07 0.19 0.05 0.07 0.08 0.10 0.11 0.13 0.32 0.30 0.39 0.52 0.42 0.21 0.15 0.05 0.02 0.03 0.03 0.07 0.09 0.08 0.05 0.06 0.04 0.08 0.07 0.07 0.05 0.06 0.04 0.05 0.05 0.04 0.03 0.04 0.08 0.08 0.11 0.06 0.06 0.06 0.08 0.10 0.10 0.06 0.04 0.04 0.07 0.04 0.03 0.03 0.02 0.02 0.01 0.00 0.01 0.00 0.00 0.00 0.00 0.00 0.00 0.00
0.00 0.00 0.00 0.00 0.00 0.00 0.00 0.00 0.00 0.00 0.00 0.00 0.00 0.00 0.00 0.00 0.00 0.00 0.00 0.00 0.00 0.00 0.00 0.01 0.08 0.08 0.06 0.34 0.28 0.28 0.22 0.15 0.10 0.12 0.19 0.28 0.28 0.06 0.08 0.13 0.13 0.22 0.31 0.52 0.46 0.46 0.40 0.79 0.28 0.12 0.02 0.05 0.07 0.12 0.10 0.08 0.08 0.05 0.08 0.08 0.06 0.05 0.05 0.02 0.03 0.04 0.03 0.07 0.09 0.05 0.05 0.04 0.03 0.04 0.04 0.05 0.05 0.09 0.11 0.06 0.10 0.08 0.09 0.03 0.03 0.02 0.01 0.02 0.02 0.01 0.00 0.00 0.00 0.00 0.00 0.00 0.00
0.00 0.00 0.00 0.00 0.00 0.00 0.00 0.00 0.00 0.00 0.00 0.00 0.00 0.00 0.00 0.00 0.00 0.00 0.00 0.00 0.00 0.03 0.00 0.03 0.12 0.23 0.26 0.44 0.63 0.21 0.20 0.18 0.28 0.18 0.27 0.19 0.19 0.20 0.12 0.12 0.21 0.20 0.50 0.48 0.86 0.95 0.38 0.44 0.71 0.23 0.09 0.06 0.09 0.10 0.16 0.16 0.16 0.08 0.06 0.03 0.03 0.03 0.02 0.04 0.06 0.04 0.04 0.04 0.07 0.07 0.05 0.05 0.02 0.02 0.04 0.07 0.04 0.07 0.08 0.07 0.06 0.09 0.09 0.06 0.03 0.01 0.01 0.01 0.02 0.00 0.00 0.00 0.00 0.00 0.00 0.00 0.00
0.00 0.00 0.00 0.00 0.00 0.00 0.00 0.00 0.00 0.00 0.00 0.00 0.00 0.00 0.00 0.00 0.00 0.00 0.00 0.00 0.00 0.02 0.04 0.00 0.19 0.06 0.14 0.31 0.65 0.50 0.28 0.27 0.34 0.23 0.18 0.11 0.19 0.13 0.14 0.16 0.23 0.35 0.46 0.39 0.33 0.61 1.03 0.83 0.77 1.18 0.77 0.19 0.23 0.46 0.36 0.51 0.13 0.10 0.06 0.06 0.06 0.05 0.03 0.05 0.06 0.07 0.06 0.04 0.06 0.06 0.02 0.02 0.02 0.04 0.07 0.06 0.04 0.08 0.06 0.05 0.05 0.04 0.12 0.03 0.04 0.00 0.00 0.00 0.01 0.02 0.01 0.00 0.00 0.00 0.00 0.00 0.00
0.01 0.00 0.00 0.00 0.00 0.00 0.00 0.00 0.00 0.00 0.00 0.00 0.00 0.00 0.00 0.00 0.00 0.00 0.00 0.00 0.02 0.11 0.05 0.02 0.02 0.07 0.77 0.44 0.42 0.51 0.43 0.44 0.44 0.46 0.19 0.12 0.12 0.14 0.15 0.19 0.30 0.41 0.32 0.39 0.36 0.45 0.63 0.88 0.77 1.36 0.91 0.90 0.36 0.27 0.49 0.24 0.09 0.15 0.17 0.25 0.15 0.10 0.04 0.04 0.07 0.06 0.07 0.11 0.07 0.06 0.04 0.04 0.04 0.06 0.06 0.04 0.04 0.05 0.03 0.03 0.02 0.02 0.07 0.05 0.02 0.01 0.00 0.01 0.01 0.00 0.00 0.00 0.00 0.00 0.00 0.00 0.00
0.03 0.01 0.01 0.00 0.00 0.00 0.00 0.00 0.00 0.00 0.00 0.00 0.00 0.00 0.00 0.00 0.00 0.00 0.00 0.00 0.00 0.02 0.05 0.04 0.10 0.02 0.52 0.28 0.84 0.46 0.56 0.52 0.50 0.46 0.19 0.13 0.13 0.20 0.16 0.48 0.44 0.40 0.27 0.56 0.69 0.56 1.06 2.25 2.63 1.77 2.01 1.12 0.78 0.71 0.56 0.35 0.26 0.30 0.32 0.19 0.04 0.06 0.09 0.10 0.08 0.06 0.06 0.06 0.04 0.06 0.06 0.03 0.04 0.11 0.10 0.03 0.06 0.04 0.02 0.01 0.01 0.02 0.01 0.03 0.01 0.00 0.00 0.00 0.00 0.00 0.00 0.00 0.00 0.00 0.00 0.00 0.00
0.10 0.01 0.00 0.00 0.00 0.00 0.00 0.00 0.00 0.00 0.00 0.00 0.00 0.00 0.00 0.00 0.00 0.00 0.00 0.00 0.00 0.01 0.00 0.02 0.11 0.08 1.59 0.33 0.74 0.58 0.42 0.28 0.30 0.23 0.18 0.12 0.21 0.18 0.21 0.40 0.62 0.50 0.46 1.14 0.57 1.04 1.37 1.88 1.52 1.09 0.88 1.02 0.91 0.74 0.75 0.88 0.30 0.28 0.29 0.17 0.08 0.05 0.03 0.03 0.05 0.06 0.05 0.04 0.02 0.07 0.06 0.04 0.13 0.18 0.14 0.07 0.05 0.03 0.02 0.01 0.05 0.01 0.02 0.01 0.01 0.00 0.00 0.00 0.00 0.00 0.00 0.00 0.00 0.00 0.00 0.00 0.00
0.03 0.00 0.01 0.01 0.00 0.00 0.00 0.00 0.00 0.00 0.00 0.00 0.00 0.00 0.00 0.00 0.00 0.00 0.00 0.00 0.04 0.01 0.00 0.05 0.01 0.20 0.21 0.14 0.22 0.21 0.14 0.13 0.27 0.11 0.11 0.18 0.20 0.29 0.31 0.61 0.68 0.77 0.58 1.18 1.86 1.61 1.75 2.37 1.92 1.13 1.14 1.27 1.31 1.34 0.81 0.86 0.45 0.26 0.18 0.11 0.09 0.10 0.11 0.11 0.13 0.12 0.10 0.06 0.13 0.14 0.15 0.29 0.29 0.32 0.15 0.24 0.07 0.05 0.01 0.10 0.02 0.01 0.01 0.01 0.01 0.01 0.01 0.00 0.00 0.00 0.00 0.00 0.00 0.00 0.00 0.00 0.00
0.00 0.00 0.00 0.00 0.02 0.01 0.00 0.00 0.00 0.00 0.00 0.00 0.00 0.00 0.00 0.00 0.00 0.00 0.00 0.00 0.02 0.04 0.01 0.05 0.05 0.03 0.17 0.16 0.11 0.12 0.19 0.08 0.30 0.24 0.11 0.21 0.23 0.35 0.48 0.82 0.76 1.02 1.12 1.73 1.60 2.01 1.51 1.39 1.90 1.12 1.14 2.46 1.60 1.83 1.32 0.69 0.67 0.27 0.28 0.20 0.13 0.13 0.15 0.15 0.11 0.20 0.14 0.26 0.25 0.18 0.25 0.46 0.40 0.36 0.24 0.23 0.20 0.19 0.01 0.02 0.02 0.01 0.01 0.00 0.01 0.01 0.01 0.00 0.00 0.00 0.00 0.00 0.00 0.00 0.00 0.00 0.00
0.00 0.01 0.02 0.01 0.01 0.01 0.01 0.00 0.00 0.00 0.00 0.00 0.00 0.00 0.00 0.00 0.00 0.00 0.00 0.00 0.01 0.02 0.03 0.13 0.06 0.13 0.16 0.18 0.18 0.09 0.11 0.18 0.43 0.35 0.22 0.20 0.19 0.29 0.69 0.86 0.64 1.04 1.24 1.82 1.08 1.12 1.46 1.15 1.14 1.73 1.79 2.01 2.29 2.37 1.62 0.63 1.12 0.65 0.58 0.46 0.58 0.40 0.31 0.17 0.26 0.25 0.31 0.34 0.32 0.24 0.41 0.56 0.51 0.34 0.43 0.54 0.46 0.31 0.17 0.04 0.06 0.01 0.01 0.01 0.00 0.00 0.00 0.00 0.00 0.00 0.00 0.00 0.00 0.00 0.00 0.00 0.00
0.00 0.00 0.01 0.05 0.05 0.01 0.00 0.00 0.00 0.00 0.01 0.00 0.00 0.00 0.00 0.00 0.00 0.00 0.05 0.03 0.03 0.05 0.06 0.29 0.21 0.22 0.16 0.22 0.13 0.12 0.12 0.26 0.52 1.22 0.23 0.15 0.19 0.32 0.80 0.98 0.55 0.60 0.72 1.49 1.97 1.86 1.37 1.90 1.49 2.14 1.54 1.31 1.88 1.57 1.45 0.91 0.47 0.55 0.65 0.57 0.54 0.29 0.52 0.24 0.22 0.18 0.16 0.12 0.08 0.27 0.52 0.95 0.81 0.88 1.01 0.57 0.50 0.27 0.44 0.19 0.09 0.04 0.03 0.01 0.00 0.00 0.01 0.00 0.00 0.00 0.00 0.00 0.00 0.00 0.01 0.01 0.01
0.00 0.00 0.00 0.01 0.01 0.02 0.01 0.00 0.00 0.00 0.02 0.08 0.01 0.00 0.00 0.00 0.01 0.00 0.01 0.02 0.04 0.06 0.12 0.24 0.44 0.35 0.20 0.26 0.26 0.24 0.29 0.46 1.07 1.29 0.66 0.20 0.32 0.53 1.11 1.00 0.53 0.61 0.75 1.17 1.62 1.03 0.90 1.91 1.82 1.53 1.01 2.65 1.30 1.38 1.89 1.48 0.72 0.74 0.67 0.58 0.51 0.45 0.23 0.27 0.25 0.49 0.33 0.28 0.29 0.64 0.71 0.82 1.65 1.63 1.01 0.79 0.50 0.70 0.22 0.10 0.04 0.06 0.13 0.04 0.00 0.01 0.01 0.00 0.00 0.03 0.03 0.00 0.01 0.01 0.07 0.10 0.04
0.00 0.00 0.00 0.00 0.00 0.00 0.00 0.00 0.00 0.00 0.00 0.01 0.03 0.01 0.00 0.00 0.00 0.00 0.01 0.01 0.06 0.10 0.28 0.14 0.18 0.28 0.58 0.59 0.62 0.72 1.23 1.16 1.77 1.51 0.80 0.58 1.01 1.88 1.98 1.90 2.01 1.29 0.93 1.53 1.23 1.03 0.97 2.09 1.98 2.12 2.51 1.92 2.52 2.73 1.36 1.84 1.02 1.37 1.19 1.29 0.51 0.51 0.40 0.43 0.85 0.95 1.28 1.10 0.74 2.08 1.32 1.30 0.93 1.36 0.89 0.90 1.06 0.55 0.33 0.29 0.19 0.14 0.16 0.14 0.10 0.21 0.12 0.13 0.04 0.06 0.02 0.01 0.02 0.03 0.06 0.08 0.21
0.00 0.00 0.00 0.00 0.00 0.00 0.00 0.00 0.00 0.00 0.00 0.00 0.02 0.02 0.02 0.01 0.00 0.00 0.00 0.03 0.07 0.05 0.06 0.08 0.10 0.12 0.19 0.21 0.26 0.49 1.14 1.72 1.74 1.17 1.82 1.82 1.67 1.90 1.76 2.22 2.45 2.28 1.73 2.20 1.30 1.70 1.40 2.00 2.16 1.54 2.07 2.33 2.27 2.15 1.88 0.82 0.82 0.89 1.11 1.33 0.82 0.60 0.61 0.65 1.05 1.78 1.37 1.70 1.35 1.63 1.73 1.29 1.10 1.73 1.08 1.05 1.42 0.95 1.17 1.31 0.50 0.56 0.31 0.30 0.16 0.51 0.27 0.10 0.19 0.08 0.06 0.08 0.06 0.17 0.07 0.14 0.21
0.00 0.00 0.00 0.00 0.00 0.00 0.00 0.00 0.00 0.00 0.00 0.00 0.00 0.04 0.04 0.05 0.02 0.00 0.00 0.00 0.02 0.01 0.05 0.09 0.11 0.19 0.17 0.15 0.34 0.93 1.09 2.30 1.47 1.42 1.71 1.44 1.62 3.33 2.74 3.35 1.78 0.93 2.13 1.12 0.97 1.18 2.22 1.58 1.53 1.65 1.92 2.50 2.00 1.76 2.39 1.46 2.00 1.85 1.06 1.08 0.67 0.79 0.99 0.74 0.66 1.91 1.85 1.77 2.05 1.94 2.10 1.24 0.85 1.49 1.41 1.35 1.34 0.81 1.22 1.04 1.14 0.82 0.43 0.89 0.21 0.72 0.42 0.27 0.37 0.56 0.22 0.20 0.11 0.04 0.07 0.07 0.51
0.00 0.00 0.00 0.00 0.00 0.00 0.00 0.00 0.00 0.00 0.00 0.00 0.00 0.01 0.03 0.01 0.04 0.02 0.00 0.00 0.00 0.00 0.03 0.04 0.08 0.17 0.17 0.19 0.44 0.61 0.75 0.76 0.90 2.85 2.52 2.94 3.63 3.10 2.96 2.85 2.94 2.58 1.71 1.58 1.86 2.17 2.35 1.27 1.27 1.25 1.29 1.62 1.48 2.11 2.14 1.68 1.42 1.04 1.13 1.17 1.56 1.26 1.35 0.91 0.80 1.59 1.39 1.93 1.69 1.78 1.47 0.93 1.26 1.21 1.00 0.91 1.11 0.94 1.22 0.90 0.78 0.69 0.84 0.70 0.54 0.32 0.37 0.38 0.24 0.09 0.22 0.17 0.10 0.06 0.07 0.19 0.32
0.00 0.00 0.00 0.00 0.00 0.00 0.00 0.00 0.00 0.00 0.00 0.00 0.00 0.00 0.00 0.01 0.02 0.03 0.03 0.01 0.01 0.01 0.00 0.03 0.07 0.13 0.18 0.21 0.46 0.73 0.66 0.79 1.07 1.40 1.08 1.27 1.95 2.53 3.15 2.96 2.56 1.87 1.61 1.48 2.67 2.63 1.35 1.74 1.05 0.80 0.85 1.08 1.72 1.81 1.39 1.62 1.87 1.91 1.80 1.27 1.38 1.27 1.73 1.56 1.57 1.49 1.56 1.67 2.00 1.55 1.57 1.07 1.18 1.27 1.34 1.26 1.26 1.08 1.38 0.91 0.87 1.10 0.88 1.04 0.47 0.30 0.18 0.24 0.15 0.16 0.16 0.14 0.04 0.06 0.18 0.17 0.13
0.00 0.00 0.00 0.00 0.00 0.00 0.00 0.00 0.00 0.00 0.00 0.00 0.00 0.00 0.00 0.00 0.00 0.03 0.10 0.07 0.04 0.03 0.02 0.04 0.21 0.18 0.21 0.29 0.54 0.87 0.85 1.28 1.69 1.32 1.07 1.12 1.48 1.77 1.72 2.49 2.45 1.96 2.35 1.92 1.51 1.60 1.23 1.11 1.00 0.74 1.08 1.59 1.65 2.17 1.57 1.57 1.85 1.92 1.82 1.44 2.54 2.04 2.24 2.17 2.11 1.65 1.56 1.58 1.47 1.25 1.26 1.52 1.18 1.27 1.42 1.45 1.19 1.74 1.30 1.02 0.95 1.09 0.70 0.63 0.71 0.69 0.63 0.22 0.17 0.10 0.11 0.14 0.26 0.13 0.23 0.18 0.16
0.00 0.00 0.00 0.00 0.00 0.00 0.00 0.00 0.00 0.00 0.00 0.00 0.00 0.00 0.00 0.00 0.00 0.17 1.06 0.17 0.04 0.12 0.20 0.30 0.19 0.22 0.36 0.49 0.61 0.77 1.04 1.49 1.25 1.02 0.89 1.26 1.45 1.29 1.80 1.45 2.37 2.77 2.53 2.49 1.69 2.46 1.98 1.06 1.04 1.29 1.40 2.05 2.32 1.47 2.18 2.27 1.93 2.14 2.34 2.14 1.89 1.68 1.92 1.33 2.45 2.36 1.62 1.06 1.32 1.05 1.14 1.33 1.39 1.23 1.06 0.84 0.96 0.69 0.90 1.13 0.90 0.97 0.98 0.79 0.90 0.89 0.56 0.78 0.33 0.15 0.12 0.14 0.20 0.25 0.43 0.28 0.20
0.00 0.00 0.00 0.00 0.00 0.00 0.00 0.00 0.00 0.00 0.00 0.00 0.00 0.00 0.00 0.00 0.00 0.04 0.10 0.13 0.34 0.33 0.10 0.08 0.13 0.33 0.33 0.38 0.79 1.41 1.69 1.15 0.72 0.98 1.06 1.61 1.61 1.71 1.28 1.03 2.18 2.13 3.47 2.59 2.43 1.85 1.34 1.42 1.55 1.23 1.57 1.99 2.47 2.03 2.26 2.93 2.14 1.87 1.98 1.70 2.09 1.51 1.45 1.78 2.12 2.14 1.74 1.75 1.22 1.15 1.58 1.52 1.47 0.85 1.13 1.16 1.11 0.82 0.68 0.70 0.93 1.05 1.40 0.82 0.96 0.68 0.80 0.84 0.59 0.48 0.30 0.21 0.18 0.43 0.85 0.69 0.43
0.00 0.00 0.00 0.00 0.00 0.00 0.00 0.00 0.00 0.00 0.00 0.00 0.00 0.00 0.00 0.00 0.03 0.03 0.05 0.21 0.20 0.15 0.23 0.26 0.34 0.65 0.37 0.58 0.79 0.89 0.73 0.96 1.09 0.92 1.54 1.87 1.66 1.73 1.48 1.89 2.26 2.61 2.46 2.29 2.42 1.79 1.57 1.91 1.65 1.21 1.58 2.42 3.50 3.27 2.34 2.75 3.51 2.56 2.08 1.69 1.68 1.41 1.34 1.25 1.70 1.92 2.02 1.66 1.45 1.39 1.17 1.10 1.49 1.25 1.34 1.03 0.63 0.86 0.78 0.99 1.06 1.32 1.36 1.18 0.97 0.94 1.12 0.89 1.11 0.96 0.82 0.61 0.60 0.82 0.55 0.73 0.59
0.00 0.00 0.00 0.00 0.00 0.00 0.00 0.00 0.00 0.00 0.00 0.00 0.00 0.00 0.00 0.00 0.02 0.12 0.36 0.24 0.26 0.21 0.23 0.18 0.38 1.20 0.80 0.78 1.09 0.70 1.19 1.11 1.93 2.16 1.78 2.05 1.75 1.25 1.46 1.85 1.43 1.76 2.00 1.69 1.62 1.40 1.77 2.16 2.03 2.33 2.46 2.21 3.13 3.23 2.91 2.85 2.04 1.97 1.73 1.40 1.00 0.96 1.18 1.43 1.77 1.87 1.13 1.49 1.31 1.40 1.14 1.68 1.62 1.67 1.55 1.10 1.02 1.31 1.60 1.02 0.91 1.17 1.17 1.02 0.89 1.20 1.02 1.14 1.21 0.93 0.67 0.57 0.65 0.47 0.56 0.68 1.06
0.00 0.00 0.00 0.00 0.00 0.00 0.00 0.00 0.00 0.00 0.00 0.00 0.00 0.00 0.00 0.01 0.15 0.46 0.47 0.48 0.54 0.67 0.57 0.75 1.14 1.35 0.99 1.40 1.33 1.91 2.44 2.87 1.88 1.57 1.40 1.44 1.71 1.17 1.22 0.81 0.97 0.96 0.93 1.34 1.52 1.69 1.75 2.16 1.71 1.81 1.48 1.78 1.61 1.94 2.01 2.05 1.81 1.48 1.21 0.94 0.97 1.33 1.07 1.27 1.59 1.42 1.78 1.23 1.54 1.66 1.33 1.20 1.15 1.34 1.43 1.24 1.00 1.08 0.85 0.88 0.52 1.09 0.88 1.26 1.55 0.82 1.21 1.17 0.75 0.67 0.50 0.83 0.67 0.72 0.71 1.63 1.66
0.00 0.00 0.00 0.00 0.00 0.00 0.00 0.00 0.00 0.00 0.00 0.00 0.00 0.00 0.16 0.07 0.20 1.08 2.13 0.81 1.08 1.36 2.49 2.19 2.40 2.21 2.41 2.98 2.39 1.71 1.80 1.49 1.13 1.12 1.77 1.81 0.92 1.34 1.04 0.74 0.85 0.64 1.04 1.57 1.61 1.40 1.17 1.16 1.07 1.51 1.05 1.10 2.07 1.62 1.61 1.40 1.70 1.55 1.02 0.70 1.29 1.25 1.12 1.05 1.58 1.60 1.65 1.94 1.71 1.08 1.22 1.18 1.01 1.32 0.92 1.21 1.28 1.32 0.92 0.72 0.78 1.06 1.10 0.93 1.15 0.77 1.01 1.03 0.98 0.73 0.88 1.26 1.14 1.23 1.11 1.49 1.22
0.00 0.00 0.00 0.00 0.00 0.00 0.00 0.00 0.00 0.00 0.00 0.00 0.00 0.01 0.12 0.11 0.66 1.41 1.93 2.48 2.02 0.84 0.71 1.56 2.04 2.77 3.01 1.22 1.22 1.58 1.47 0.61 1.24 1.05 1.42 1.68 1.78 1.15 1.22 0.98 1.02 0.88 0.95 0.91 1.61 1.50 1.08 1.10 1.39 1.02 1.39 0.95 1.69 1.95 1.69 1.71 1.68 1.16 1.33 1.46 1.31 1.27 1.55 1.72 1.72 2.21 1.44 1.61 1.72 1.46 1.32 1.07 0.73 0.68 1.09 1.27 1.50 1.72 1.29 1.33 1.05 0.94 0.79 0.68 0.82 1.03 0.63 0.35 0.69 1.12 0.86 1.28 2.16 1.98 1.65 1.35 1.22
0.00 0.00 0.00 0.00 0.00 0.00 0.00 0.00 0.00 0.00 0.00 0.00 0.00 0.01 0.14 0.08 0.40 0.22 0.48 1.65 0.75 1.34 1.22 1.06 1.40 1.65 1.31 1.70 1.38 1.54 1.61 1.10 0.69 1.43 1.49 1.58 1.70 1.79 1.27 1.22 1.12 0.74 0.78 1.07 1.04 0.95 0.63 1.22 1.43 1.14 0.83 0.90 1.36 1.49 1.58 1.40 1.19 1.24 1.02 0.82 1.10 0.69 0.93 1.02 1.13 1.70 1.53 2.03 1.58 1.28 0.60 0.51 0.79 1.04 1.21 2.16 2.10 1.41 2.15 1.91 1.40 0.80 0.97 1.10 0.78 1.02 1.49 1.03 0.91 1.39 1.54 1.63 1.39 1.45 1.32 1.35 1.16
0.00 0.00 0.00 0.00 0.00 0.00 0.00 0.00 0.00 0.00 0.00 0.00 0.00 0.00 0.06 0.07 0.10 0.17 0.61 1.42 0.56 0.69 0.83 0.35 0.50 0.41 0.98 2.06 1.43 1.19 0.92 0.96 1.34 1.03 0.79 1.54 1.10 1.03 0.99 0.95 1.02 0.65 0.76 1.18 1.34 0.62 0.80 1.14 1.11 0.81 0.48 0.73 1.18 1.28 0.95 0.83 0.90 0.97 0.79 0.98 0.84 1.12 1.40 0.66 1.51 1.70 1.43 1.68 1.76 1.28 0.98 1.63 1.55 1.93 2.22 2.32 1.73 1.33 1.35 1.19 1.37 0.93 0.90 1.41 1.21 1.02 1.00 0.92 1.20 1.88 1.49 1.94 1.83 1.80 0.95 1.36 1.08
0.00 0.01 0.00 0.00 0.00 0.00 0.00 0.00 0.00 0.00 0.00 0.00 0.00 0.05 0.17 0.05 0.10 0.92 1.50 1.05 1.01 0.37 0.85 1.22 1.25 1.14 0.85 1.63 1.18 0.75 0.65 1.19 0.99 1.11 0.89 1.06 1.50 1.54 1.09 0.85 0.72 0.95 0.66 0.89 0.83 1.04 0.99 1.14 0.52 0.65 0.57 0.66 0.77 1.03 0.91 0.87 0.92 0.80 0.77 0.87 1.15 1.19 1.19 0.80 1.15 1.83 1.67 1.30 1.12 1.55 1.73 1.75 1.62 1.73 1.28 2.06 1.69 1.32 1.63 1.36 1.42 1.05 1.04 1.27 1.48 1.24 0.94 1.29 0.97 1.11 1.15 1.33 1.48 1.34 1.20 1.47 1.19
0.00 0.00 0.00 0.00 0.00 0.00 0.00 0.00 0.00 0.00 0.00 0.00 0.00 0.02 0.06 0.13 0.14 0.51 1.06 1.48 1.17 0.96 0.35 0.81 1.49 1.34 1.63 1.12 1.19 1.05 1.30 1.18 1.28 1.64 1.86 1.21 1.03 0.76 1.28 1.22 1.01 0.81 0.73 0.94 0.96 1.62 1.73 0.96 0.82 0.98 0.63 0.56 0.75 1.33 0.88 1.00 0.97 0.84 0.83 0.95 1.01 1.17 0.80 0.78 1.00 1.20 0.99 0.85 1.04 2.03 1.97 1.23 1.99 1.42 1.64 1.81 1.19 1.14 1.17 1.15 1.33 1.50 1.50 1.29 1.33 1.41 1.52 1.22 1.08 1.66 1.36 0.99 1.65 0.79 0.79 0.94 1.11
0.00 0.00 0.00 0.00 0.00 0.00 0.00 0.00 0.00 0.00 0.01 0.02 0.01 0.04 0.17 0.14 0.25 0.27 0.30 0.50 0.47 1.21 0.67 0.97 0.60 1.08 2.27 1.27 0.60 0.62 0.74 1.57 0.82 0.85 1.32 0.91 0.95 1.49 0.95 1.52 1.45 0.81 0.73 0.77 0.94 1.69 1.58 0.72 1.06 1.06 0.77 0.71 0.74 1.33 1.17 0.65 0.66 0.65 0.71 0.63 0.90 0.82 0.65 0.56 0.63 1.31 0.97 0.72 0.94 0.86 1.99 1.99 1.42 0.84 0.96 1.40 1.33 1.31 1.38 1.21 1.55 1.62 1.49 1.49 1.42 1.20 1.43 1.16 1.15 1.28 1.04 1.14 1.02 1.14 1.83 0.90 1.28
0.00 0.00 0.00 0.00 0.00 0.00 0.00 0.00 0.00 0.00 0.00 0.05 0.02 0.02 0.33 0.23 0.25 0.21 0.33 0.51 0.80 1.12 1.65 1.69 1.42 0.53 1.04 0.91 1.21 0.64 0.80 1.12 0.89 0.87 1.51 0.83 1.24 0.97 0.99 0.99 0.92 1.52 0.93 0.91 1.35 1.47 1.15 0.81 0.71 0.67 0.78 0.67 1.21 1.32 0.81 0.94 1.11 0.94 0.87 0.53 0.77 1.07 0.60 0.48 0.72 0.80 1.60 0.91 0.80 0.96 1.66 1.43 1.59 0.69 0.72 0.70 1.23 0.89 1.38 1.72 1.62 1.77 1.42 1.30 1.39 1.15 1.15 0.84 1.43 1.05 1.05 0.72 0.84 1.23 1.50 1.15 1.40
0.00 0.00 0.00 0.00 0.00 0.00 0.00 0.00 0.00 0.00 0.00 0.03 0.02 0.03 0.40 0.35 0.32 0.19 0.14 0.15 0.13 0.33 0.12 0.29 0.54 0.68 0.77 0.63 0.62 0.76 0.84 0.80 0.64 0.90 1.11 0.86 1.11 0.52 0.81 0.83 1.04 1.11 1.06 1.18 1.62 1.82 1.22 0.93 0.73 0.46 0.74 1.07 1.16 1.04 0.71 0.91 1.08 0.96 0.72 0.67 0.50 0.67 0.63 0.39 0.77 0.89 0.58 0.76 0.92 0.81 1.01 0.79 1.01 1.43 1.50 1.18 0.30 0.23 0.47 0.81 0.75 0.84 1.28 1.31 1.27 1.38 1.27 1.04 0.95 1.00 0.96 0.95 0.97 1.40 0.97 1.20 1.12
0.00 0.00 0.00 0.00 0.00 0.00 0.00 0.02 0.00 0.00 0.00 0.00 0.04 0.14 0.32 0.33 0.34 0.40 0.17 0.15 0.09 0.08 0.19 0.42 0.81 0.97 0.71 0.48 0.24 0.26 0.45 0.71 1.07 0.78 0.64 0.80 0.83 0.72 0.59 1.19 1.29 1.26 1.55 1.25 1.07 1.48 1.31 1.45 1.25 0.61 0.48 0.85 1.21 0.69 0.73 0.72 0.49 0.37 0.37 0.43 0.32 0.45 0.39 0.29 0.53 0.45 1.07 0.81 0.83 0.59 0.44 0.97 0.97 0.95 1.00 0.89 1.09 0.70 0.27 0.25 0.53 0.50 1.02 1.09 0.99 1.18 1.16 1.26 1.33 1.06 0.81 0.78 0.88 1.14 0.96 1.00 1.08
0.00 0.00 0.00 0.00 0.00 0.00 0.00 0.00 0.00 0.01 0.06 0.04 0.01 0.15 0.42 0.54 0.39 0.41 0.26 0.23 0.13 0.17 0.19 0.20 0.93 0.49 0.30 0.52 0.24 0.28 0.82 0.33 0.51 0.55 1.10 1.04 0.46 0.97 0.80 0.67 0.68 1.59 2.30 1.16 1.10 1.72 1.21 0.67 0.48 0.47 0.32 0.36 0.43 0.47 0.44 0.28 0.32 0.32 0.31 0.37 0.39 0.42 0.27 0.68 1.08 0.77 0.63 0.39 0.35 0.45 0.52 0.70 0.93 0.79 0.54 0.32 0.45 0.41 0.16 0.20 0.25 0.28 1.06 0.66 0.89 0.96 1.14 1.49 1.22 1.48 1.20 1.67 1.18 0.91 1.67 0.98 1.33
0.00 0.00 0.00 0.00 0.00 0.00 0.00 0.00 0.00 0.03 0.05 0.06 0.00 0.04 0.37 0.59 0.57 0.64 0.51 0.36 0.34 0.46 0.41 0.28 0.29 0.34 0.48 0.57 0.38 0.28 0.37 0.38 0.47 0.50 0.47 0.41 0.50 0.44 0.64 0.76 0.72 1.79 1.63 1.77 1.48 1.96 1.39 1.33 0.47 0.57 0.15 0.36 0.30 0.24 0.20 0.23 0.35 0.38 0.29 0.23 0.27 0.41 0.42 0.53 0.53 0.50 0.35 0.22 0.24 0.54 0.41 0.53 0.63 0.29 0.28 0.16 0.29 0.45 0.35 0.29 0.23 0.33 0.31 0.47 1.14 0.77 0.77 0.91 1.00 0.96 1.17 0.84 0.68 1.05 1.58 1.34 1.12
0.00 0.00 0.00 0.00 0.00 0.00 0.00 0.00 0.00 0.00 0.00 0.02 0.00 0.01 0.21 0.37 0.22 0.17 0.36 0.31 0.36 0.69 0.94 0.84 0.21 0.30 0.64 0.33 0.55 0.25 0.39 0.31 0.38 0.48 0.39 0.28 0.24 0.24 0.34 0.29 0.69 1.78 2.38 1.95 1.53 1.78 1.67 1.30 0.71 0.54 0.23 0.20 0.27 0.27 0.19 0.26 0.34 0.28 0.25 0.32 0.52 0.67 0.43 0.36 0.28 0.30 0.57 0.58 0.35 0.20 0.20 0.33 0.48 0.52 0.29 0.29 0.34 0.82 0.41 0.30 0.24 0.34 0.29 0.50 0.68 0.37 0.52 0.90 0.79 0.73 0.78 1.18 1.18 1.30 1.80 1.94 1.28
0.00 0.00 0.00 0.00 0.00 0.00 0.00 0.00 0.00 0.01 0.03 0.10 0.01 0.01 0.12 0.13 0.19 0.13 0.33 0.47 0.32 0.29 0.19 0.24 0.25 0.33 0.52 0.38 0.63 0.47 0.50 0.43 0.22 1.36 1.19 0.59 0.28 0.26 0.21 0.22 0.46 1.11 1.12 1.44 1.85 1.58 1.95 1.14 0.63 0.30 0.33 0.37 0.42 0.21 0.15 0.20 0.26 0.46 0.35 0.48 0.86 0.51 0.60 0.35 0.30 0.42 0.48 0.59 0.47 0.32 0.22 0.18 0.15 0.22 0.21 0.30 0.21 0.53 0.72 0.16 0.17 0.21 0.34 0.45 0.53 0.57 0.67 0.54 0.87 0.86 0.80 1.18 0.85 0.85 1.16 1.57 1.26
0.00 0.00 0.00 0.00 0.00 0.00 0.01 0.01 0.02 0.02 0.02 0.05 0.01 0.02 0.09 0.18 0.12 0.34 0.50 0.34 0.18 0.23 0.20 0.32 0.29 0.67 0.75 0.20 0.33 0.42 0.28 0.81 0.92 0.97 0.43 0.39 0.35 0.55 0.28 0.17 0.17 0.37 1.07 0.94 1.80 2.04 1.25 0.87 0.80 0.28 0.25 0.50 0.65 0.36 0.53 0.45 0.41 0.47 0.37 0.27 0.34 0.68 0.48 0.58 0.65 0.59 0.66 0.55 0.31 0.52 0.25 0.31 0.28 0.16 0.11 0.14 0.15 0.50 0.60 0.24 0.20 0.29 0.43 0.29 0.25 0.41 0.65 0.53 0.63 0.88 0.89 0.85 0.89 0.93 0.62 0.71 1.03
0.00 0.00 0.00 0.00 0.00 0.00 0.00 0.00 0.01 0.09 0.02 0.04 0.03 0.02 0.00 0.21 0.23 0.22 0.20 0.19 0.17 0.18 0.17 0.19 0.20 0.28 0.45 0.28 0.22 0.23 0.73 0.72 0.26 0.56 0.79 0.65 1.02 0.50 0.41 0.19 0.49 0.46 1.86 2.69 1.24 0.91 1.04 1.04 0.88 0.81 0.65 0.63 0.31 0.36 0.39 0.50 0.34 0.41 0.47 0.47 0.54 0.51 0.68 0.43 0.83 0.69 0.43 0.36 0.25 0.53 0.64 0.39 0.14 0.20 0.14 0.11 0.19 0.75 0.24 0.18 0.21 0.23 0.31 0.42 0.28 0.28 0.39 0.59 0.32 0.54 0.72 0.82 0.64 0.72 0.75 0.65 0.91
0.00 0.00 0.00 0.00 0.00 0.00 0.00 0.00 0.02 0.03 0.00 0.03 0.02 0.02 0.01 0.17 0.38 0.27 0.10 0.05 0.10 0.14 0.14 0.18 0.17 0.14 0.29 0.22 0.19 0.18 0.19 0.27 0.42 0.51 0.38 0.38 0.36 0.31 0.32 0.94 2.44 2.13 1.57 2.33 1.17 1.19 1.40 1.35 1.46 1.06 0.89 0.34 0.28 0.17 0.18 0.22 0.49 1.03 1.02 0.61 0.71 0.64 0.78 0.64 0.37 0.48 0.38 0.51 0.42 0.25 0.26 0.12 0.11 0.08 0.08 0.14 0.98 0.77 0.39 0.20 0.21 0.23 0.24 0.32 0.29 0.52 0.74 0.50 0.49 0.56 0.43 0.64 0.82 1.25 0.83 0.94 0.79
0.00 0.00 0.00 0.00 0.06 0.00 0.06 0.03 0.00 0.00 0.03 0.01 0.01 0.03 0.08 0.04 0.25 0.41 0.09 0.07 0.08 0.07 0.12 0.17 0.14 0.18 0.36 0.21 0.17 0.47 0.23 0.34 0.35 0.47 0.59 0.70 0.45 0.53 0.91 1.40 1.05 1.08 0.85 1.83 2.05 1.17 0.80 0.83 0.97 1.60 1.31 0.91 0.63 0.43 0.31 0.41 0.80 1.14 0.75 0.84 0.77 0.50 0.37 0.28 0.31 0.36 0.18 0.29 0.54 0.27 0.18 0.14 0.12 0.10 0.07 0.08 0.16 0.17 0.19 0.15 0.19 0.26 0.23 0.28 0.59 0.72 0.68 0.58 0.82 0.47 0.54 0.49 0.77 0.56 0.47 0.69 0.79
0.01 0.02 0.07 0.03 0.08 0.05 0.00 0.07 0.07 0.05 0.02 0.02 0.01 0.06 0.15 0.39 0.22 0.08 0.08 0.09 0.07 0.05 0.05 0.07 0.11 0.28 0.31 0.18 0.14 0.21 0.22 0.17 0.42 0.60 0.39 0.46 0.47 1.10 1.15 0.83 0.93 1.28 1.46 1.33 1.13 1.01 0.80 0.80 1.19 1.60 2.08 1.14 0.74 0.51 0.75 1.19 0.42 0.51 0.62 0.86 0.44 0.33 0.19 0.33 0.57 0.17 0.22 0.33 0.52 0.28 0.15 0.10 0.08 0.11 0.09 0.08 0.14 0.16 0.17 0.16 0.17 0.30 0.27 0.57 0.70 0.43 0.47 0.34 0.80 0.55 0.53 0.38 0.58 0.75 0.75 0.66 0.60
0.05 0.01 0.01 0.12 0.07 0.03 0.02 0.03 0.05 0.06 0.12 0.05 0.02 0.04 0.15 0.04 0.68 0.13 0.11 0.09 0.07 0.05 0.02 0.04 0.05 0.21 0.60 0.72 0.10 0.15 0.19 0.22 0.34 0.27 0.30 0.35 0.63 0.76 1.28 1.09 0.78 1.58 1.17 0.81 0.49 1.01 1.16 1.13 0.74 1.18 1.05 0.96 1.08 1.10 2.21 1.11 0.54 0.62 0.62 1.03 0.55 0.29 0.23 0.61 0.26 0.17 0.24 0.34 0.17 0.11 0.08 0.06 0.06 0.05 0.08 1.06 0.23 0.22 0.17 0.12 0.25 0.19 0.22 0.47 0.21 0.27 0.29 0.36 0.44 0.48 0.70 0.42 0.41 0.56 0.60 0.76 0.88
0.00 0.01 0.03 0.06 0.02 0.07 0.03 0.17 0.05 0.17 0.12 0.08 0.15 0.15 0.42 0.54 0.93 0.08 0.02 0.08 0.07 0.04 0.07 0.03 0.08 0.11 0.10 0.17 0.12 0.19 0.16 0.15 0.15 0.24 0.32 0.54 1.11 1.29 0.89 0.74 1.70 1.19 1.49 1.20 0.71 0.71 0.46 0.58 1.15 1.30 1.16 1.36 2.38 2.42 1.69 1.16 1.18 0.88 0.88 0.83 0.59 0.34 0.19 0.15 0.13 0.15 0.13 0.16 0.28 0.06 0.08 0.05 0.06 0.06 0.08 0.14 0.33 0.36 0.48 0.17 0.25 0.19 0.30 0.47 0.30 0.27 0.31 0.39 0.56 0.79 0.78 0.53 0.68 0.62 0.75 0.42 0.97
0.03 0.00 0.06 0.02 0.03 0.02 0.01 0.00 0.04 0.01 0.00 0.06 0.03 0.19 0.23 0.41 0.68 0.11 0.24 0.03 0.08 0.08 0.12 0.06 0.09 0.21 0.18 0.20 0.19 0.17 0.11 0.11 0.22 0.33 0.38 0.90 1.46 1.01 1.03 0.96 0.97 0.77 1.01 1.26 0.76 0.79 1.01 1.35 1.66 1.39 1.38 1.31 1.25 1.18 1.27 1.31 1.77 1.41 1.10 0.77 0.49 0.41 0.30 0.29 0.16 0.20 0.29 0.36 0.18 0.08 0.05 0.05 0.07 0.08 0.07 0.09 0.22 0.09 0.31 0.23 0.24 0.26 0.26 0.36 0.50 0.24 0.30 0.59 0.62 1.01 0.67 0.81 0.39 0.65 0.75 0.95 0.76
0.01 0.04 0.05 0.02 0.00 0.03 0.03 0.06 0.01 0.02 0.01 0.10 0.02 0.08 0.29 0.07 0.47 0.43 0.24 0.51 0.16 0.22 0.21 0.18 0.40 0.56 0.86 0.77 0.60 0.34 0.26 0.24 0.28 0.34 0.60 0.72 0.46 0.63 0.42 0.62 0.88 0.89 1.13 0.87 0.43 0.35 0.41 0.79 0.69 1.31 1.14 1.23 2.08 1.36 1.56 1.52 0.98 1.14 0.95 0.90 0.73 0.70 0.45 0.43 0.57 0.56 0.22 0.23 0.16 0.13 0.08 0.08 0.07 0.09 0.08 0.05 0.12 0.36 0.13 0.19 0.22 0.38 0.40 0.17 0.50 0.37 0.36 0.94 0.95 0.83 0.89 0.54 0.63 0.88 0.77 0.73 0.57
0.01 0.13 0.03 0.01 0.15 0.08 0.04 0.01 0.06 0.01 0.02 0.15 0.09 0.14 0.15 0.22 0.38 0.44 0.38 0.18 0.24 0.37 0.40 0.48 0.47 0.64 0.30 0.37 0.53 0.38 0.50 0.76 0.50 0.80 0.90 0.41 0.54 0.61 0.29 0.66 0.79 0.84 0.82 0.67 0.63 0.54 0.57 0.80 1.08 1.20 0.73 0.88 0.82 1.32 1.17 1.04 0.96 1.67 1.31 0.88 0.78 0.53 0.55 0.51 0.26 0.19 0.20 0.12 0.10 0.06 0.06 0.07 0.08 0.08 0.15 0.09 0.13 0.21 0.37 0.07 0.19 0.37 0.60 0.23 0.35 0.43 1.08 1.26 0.58 0.82 0.67 0.74 0.70 0.73 0.62 0.65 0.78
0.00 0.00 0.02 0.00 0.02 0.10 0.12 0.04 0.39 0.03 0.18 0.03 0.22 0.10 0.27 0.33 0.38 0.41 0.20 0.07 0.11 0.07 0.13 0.20 0.30 0.35 0.87 0.65 0.49 0.72 0.59 0.61 0.66 0.86 0.34 0.38 0.45 0.77 1.09 0.53 0.50 0.60 0.50 0.61 0.63 0.59 1.10 1.02 1.12 1.04 1.18 0.81 0.98 1.00 1.11 1.22 1.16 0.57 0.89 1.09 0.52 0.34 0.39 0.43 0.48 0.47 0.17 0.10 0.05 0.06 0.08 0.07 0.06 0.05 0.12 0.13 0.10 0.13 0.34 0.21 0.45 0.66 0.68 0.66 0.49 0.79 0.86 1.01 0.59 0.55 0.41 0.29 0.51 0.60 0.62 0.53 0.84
0.04 0.02 0.02 0.01 0.00 0.12 0.06 0.31 0.15 0.14 0.10 0.09 0.13 0.17 0.48 0.28 0.25 0.36 0.42 0.17 0.07 0.07 0.20 0.19 0.21 0.24 0.45 0.61 0.97 0.77 0.87 0.45 0.93 1.26 1.41 1.03 1.20 1.29 1.13 1.00 0.88 1.24 0.99 1.01 0.92 0.78 0.80 0.93 1.60 2.10 1.34 0.99 0.88 0.80 1.00 1.20 0.85 0.60 0.64 0.59 0.92 0.58 0.67 0.63 0.35 0.40 0.18 0.14 0.06 0.04 0.06 0.11 0.07 0.07 0.10 0.06 0.15 0.14 0.14 0.51 0.56 0.43 0.49 0.74 0.43 0.35 0.34 0.42 0.65 0.55 0.35 0.36 0.64 0.67 0.67 0.98 0.75
0.04 0.00 0.02 0.01 0.02 0.07 0.11 0.19 0.02 0.06 0.05 0.19 0.15 0.25 0.35 0.44 0.23 0.31 0.18 0.09 0.25 0.22 0.21 0.23 0.30 0.22 0.65 0.92 1.20 1.12 0.63 0.69 1.82 2.89 1.66 2.89 2.77 3.70 4.34 1.92 1.58 1.91 2.31 2.61 1.41 1.78 2.13 1.19 0.62 0.80 1.06 1.23 0.96 0.71 0.67 0.70 0.73 1.03 0.48 0.63 0.59 0.66 0.76 0.84 0.47 0.30 0.31 0.26 0.14 0.06 0.06 0.03 0.04 0.04 0.07 0.08 0.24 0.31 0.55 0.40 0.95 0.93 0.75 0.55 0.60 0.37 0.79 0.49 0.43 0.48 0.75 0.88 0.69 0.45 0.44 0.73 0.74